Погода в Калиновом

Украина / Киевская область     49°23′01″N   30°26′48″E
темп.,
°C
ветер,
м/с
пор.,
м/с
влажн.,
%
обл.,
%
осадки,
мм/ч
давл.,
гПа
погр.,
м
26 октября, вт
вт2600:00+2ю365911 0.0 1033109
03:00+1ю37615 0.0 1033123
06:000ю48654 0.0 1032157
09:00+2ю410625 0.0 1031272
12:00+8ю68442 0.0 1030690
15:00+10ююз68375 0.0 1028913
18:00+7ю410525 0.0 1027230
21:00+6ю512635 0.0 1027299
27 октября, ср
ср2700:00+4ю513715 0.0 1027325
03:00+3ююз512835 0.0 1026270
06:00+3ююз512905 0.0 1026264
09:00+4юз512865 0.0 1026366
12:00+10зюз56552 0.0 1024613
15:00+13зсз463899 0.0 1023840
18:00+9зсз3365100 0.0 102440
21:00+8з357899 0.0 102564
28 октября, чт
чт2800:00+7з358699 0.0 102586
03:00+6з378898 0.0 1025131
06:00+6зюз4992100 0.0 1024171
09:00+8зюз5118011 0.0 1025294
12:00+14з71053100 0.0 1024672
15:00+16зсз61051100 0.0 1022997
18:00+13сз496771 0.0 1023235
21:00+13сз4970100 0.0 1024490
29 октября, пт
пт2900:00+12сз487843 0.0 1025329
03:00+8ссз369659 0.0 1026145
06:00+9с349198 0.0 1027309
09:00+10ссв338495 0.0 1028446
12:00+11св337598 0.0 1029669
15:00+13всв22657 0.0 1029736
18:00+10вюв22766 0.0 102913
21:00+8вюв34795 0.0 103060
30 октября, сб
сб3000:00+7юв34835 0.0 103165
03:00+6ююв35875 0.0 103177
06:00+5ююв369038 0.0 1031106
09:00+7ююв498358 0.0 1031230
12:00+13ю68565 0.0 1031629
15:00+15ю67455 0.0 1030968
18:00+11ююв49635 0.0 1030168
21:00+10ю513700 0.0 1030321